FW3613 Weather Reports


Display with metric or nautical units.
time (UTC)temp
F
wind
direction
speed
MPH
gust
MPH
rain 1hr
in
rain 24hr
in
rain mn
in
humidity
%
barometer
mb
20260903015520 72 315 0.0 3.0 0.00 0.00 0.00 30 1010.2
20260903015020 72 318 0.0 4.0 0.00 0.00 0.00 30 1010.1
20260903014519 72 150 0.0 4.0 0.00 0.00 0.00 30 1010.1
20260903014019 73 133 0.0 2.0 0.00 0.00 0.00 29 1010.1
20260903013519 73 133 0.0 4.0 0.00 0.00 0.00 29 1010.1
20260903013034 73 5 1.0 4.0 0.00 0.00 0.00 28 1010.1
20260903012518 73 111 0.0 2.0 0.00 0.00 0.00 30 1010.2
20260903012018 73 140 0.0 2.0 0.00 0.00 0.00 31 1010.1
20260903011518 73 326 0.0 3.0 0.00 0.00 0.00 29 1010.1
20260903011017 73 336 0.0 4.0 0.00 0.00 0.00 29 1010.1
20260903010517 73 316 1.0 6.0 0.00 0.00 0.00 27 1010.1
20260903010029 74 106 1.0 7.0 0.00 0.00 0.00 28 1010.1
20260903005517 74 320 2.0 7.0 0.00 0.00 0.00 27 1010.1
20260903005017 75 333 2.0 5.0 0.00 0.00 0.00 27 1010.1
20260903004518 75 338 2.0 5.0 0.00 0.00 0.00 28 1010.1
20260903004017 75 135 1.0 4.0 0.00 0.00 0.00 28 1010.0
20260903003517 76 146 1.0 5.0 0.00 0.00 0.00 27 1010.0
20260903003017 76 156 1.0 5.0 0.00 0.00 0.00 27 1010.0
20260903002516 76 61 1.0 3.0 0.00 0.00 0.00 27 1010.0
20260903002016 75 146 0.0 6.0 0.00 0.00 0.00 27 1009.9
20260903001518 76 328 2.0 5.0 0.00 0.00 0.00 26 1010.0
20260903001015 76 123 0.0 5.0 0.00 0.00 0.00 29 1010.0
20260903000514 76 335 0.0 5.0 0.00 0.00 0.00 28 1010.0
20260903000014 76 326 0.0 3.0 0.00 0.00 0.00 27 1009.9
20260902235514 76 329 0.0 3.0 0.00 0.00 0.00 28 1010.0
20260902235013 76 304 1.0 3.0 0.00 0.00 0.00 27 1010.0
20260902234521 76 333 0.0 6.0 0.00 0.00 0.00 27 1009.9
20260902234015 76 340 0.0 6.0 0.00 0.00 0.00 27 1009.9
20260902233513 76 302 1.0 4.0 0.00 0.00 0.00 28 1010.0
20260902233013 76 134 2.0 4.0 0.00 0.00 0.00 26 1010.0
20260902232515 76 313 0.0 5.0 0.00 0.00 0.00 25 1010.0
20260902232011 76 350 1.0 5.0 0.00 0.00 0.00 25 1010.0
20260902231511 77 322 1.0 4.0 0.00 0.00 0.00 26 1010.1
20260902231011 77 188 0.0 6.0 0.00 0.00 0.00 27 1010.1
20260902230511 77 280 0.0 6.0 0.00 0.00 0.00 26 1010.1
20260902230011 77 336 2.0 5.0 0.00 0.00 0.00 24 1010.1
20260902225510 77 150 1.0 5.0 0.00 0.00 0.00 24 1010.0
20260902225010 77 290 0.0 9.0 0.00 0.00 0.00 24 1010.1
20260902224512 78 114 2.0 9.0 0.00 0.00 0.00 25 1010.1
20260902224009 79 328 2.0 7.0 0.00 0.00 0.00 25 1010.2
20260902223510 79 103 2.0 5.0 0.00 0.00 0.00 23 1010.2
20260902223014 79 320 0.0 4.0 0.00 0.00 0.00 23 1010.2
20260902222508 78 329 1.0 4.0 0.00 0.00 0.00 23 1010.3
20260902222006 78 133 1.0 4.0 0.00 0.00 0.00 25 1010.4
20260902221506 77 123 0.0 5.0 0.00 0.00 0.00 24 1010.4
20260902221006 77 307 2.0 5.0 0.00 0.00 0.00 24 1010.5
20260902220506 77 359 1.0 5.0 0.00 0.00 0.00 24 1010.6
20260902220005 77 318 2.0 7.0 0.00 0.00 0.00 24 1010.5
20260902215505 78 322 3.0 7.0 0.00 0.00 0.00 24 1010.7
20260902215004 78 307 1.0 5.0 0.00 0.00 0.00 26 1010.7
20260902214504 78 136 2.0 9.0 0.00 0.00 0.00 24 1010.7
20260902214003 78 260 1.0 9.0 0.00 0.00 0.00 23 1010.7
20260902213503 78 141 1.0 9.0 0.00 0.00 0.00 24 1010.7
20260902213003 78 321 3.0 11.0 0.00 0.00 0.00 22 1010.6
20260902212506 78 344 3.0 11.0 0.00 0.00 0.00 23 1010.7
20260902212003 78 127 1.0 10.0 0.00 0.00 0.00 25 1010.6
20260902211502 78 329 4.0 10.0 0.00 0.00 0.00 22 1010.7
20260902211002 78 333 0.0 9.0 0.00 0.00 0.00 23 1010.5
20260902210504 78 141 0.0 9.0 0.00 0.00 0.00 23 1010.7
20260902210006 78 146 2.0 5.0 0.00 0.00 0.00 24 1010.9
20260902205604 78 336 0.0 8.0 0.00 0.00 0.00 22 1010.7
20260902205100 77 358 1.0 8.0 0.00 0.00 0.00 23 1010.7
20260902204559 77 325 3.0 8.0 0.00 0.00 0.00 22 1010.8
20260902204058 77 173 1.0 5.0 0.00 0.00 0.00 21 1010.8
20260902203558 77 309 1.0 7.0 0.00 0.00 0.00 20 1010.8
20260902203058 77 328 4.0 7.0 0.00 0.00 0.00 21 1010.8
20260902202559 77 85 3.0 7.0 0.00 0.00 0.00 22 1010.7
20260902202057 77 333 3.0 9.0 0.00 0.00 0.00 21 1010.7
20260902201600 77 329 2.0 9.0 0.00 0.00 0.00 21 1010.6
20260902201055 77 151 0.0 5.0 0.00 0.00 0.00 20 1010.8
20260902200554 76 277 0.0 6.0 0.00 0.00 0.00 21 1010.9
20260902200054 76 302 2.0 6.0 0.00 0.00 0.00 21 1010.8
20260902195552 76 310 1.0 4.0 0.00 0.00 0.00 21 1011.0
20260902195052 76 129 1.0 7.0 0.00 0.00 0.00 21 1011.0
20260902194552 75 109 2.0 9.0 0.00 0.00 0.00 23 1011.1
20260902194052 75 127 4.0 9.0 0.00 0.00 0.00 23 1011.1
20260902193550 75 51 2.0 7.0 0.00 0.00 0.00 23 1011.1
20260902193101 75 329 2.0 7.0 0.00 0.00 0.00 22 1011.0
20260902192552 75 320 2.0 7.0 0.00 0.00 0.00 22 1011.1
20260902192049 75 333 3.0 7.0 0.00 0.00 0.00 22 1011.1
20260902191550 75 141 2.0 8.0 0.00 0.00 0.00 23 1011.1
20260902191050 75 311 1.0 7.0 0.00 0.00 0.00 23 1011.1
20260902190548 74 136 1.0 7.0 0.00 0.00 0.00 23 1011.1
20260902190045 74 353 2.0 9.0 0.00 0.00 0.00 23 1011.2
20260902185545 74 326 2.0 10.0 0.00 0.00 0.00 24 1011.3
20260902185046 74 321 4.0 10.0 0.00 0.00 0.00 23 1011.3
20260902184546 74 316 3.0 8.0 0.00 0.00 0.00 23 1011.3
20260902184044 74 338 2.0 5.0 0.00 0.00 0.00 23 1011.3
20260902183544 74 330 1.0 4.0 0.00 0.00 0.00 24 1011.3
20260902183049 73 333 0.0 8.0 0.00 0.00 0.00 23 1011.4
20260902182541 73 137 3.0 9.0 0.00 0.00 0.00 24 1011.4
20260902182040 73 333 1.0 9.0 0.00 0.00 0.00 24 1011.5
20260902181539 72 297 1.0 6.0 0.00 0.00 0.00 25 1011.5
20260902181038 72 133 2.0 6.0 0.00 0.00 0.00 26 1011.5
20260902180537 72 297 2.0 7.0 0.00 0.00 0.00 25 1011.6
20260902180036 71 323 2.0 9.0 0.00 0.00 0.00 27 1011.7
20260902175536 71 148 4.0 9.0 0.00 0.00 0.00 26 1011.7
20260902175035 71 240 1.0 6.0 0.00 0.00 0.00 26 1011.7
20260902174536 71 188 1.0 4.0 0.00 0.00 0.00 26 1011.7
20260902174033 71 1 1.0 5.0 0.00 0.00 0.00 27 1011.7
20260902173032 70 315 3.0 10.0 0.00 0.00 0.00 26 1011.5
20260902172533 70 315 3.0 9.0 0.00 0.00 0.00 26 1011.5
20260902172029 70 311 1.0 6.0 0.00 0.00 0.00 25 1011.5
20260902171530 70 300 2.0 6.0 0.00 0.00 0.00 24 1011.5
20260902171028 69 309 1.0 7.0 0.00 0.00 0.00 25 1011.5
20260902170527 69 297 2.0 7.0 0.00 0.00 0.00 24 1011.5
20260902170026 69 307 1.0 5.0 0.00 0.00 0.00 24 1011.5
20260902165526 69 342 2.0 5.0 0.00 0.00 0.00 24 1011.5
20260902165026 69 304 1.0 9.0 0.00 0.00 0.00 25 1011.5
20260902164532 68 319 2.0 9.0 0.00 0.00 0.00 25 1011.4
20260902164025 68 319 3.0 9.0 0.00 0.00 0.00 25 1011.4
20260902163524 68 323 4.0 9.0 0.00 0.00 0.00 25 1011.4
20260902163028 68 312 4.0 9.0 0.00 0.00 0.00 25 1011.3
20260902162522 68 310 3.0 11.0 0.00 0.00 0.00 28 1011.2
20260902162020 68 333 5.0 11.0 0.00 0.00 0.00 29 1011.1
20260902161520 68 345 5.0 10.0 0.00 0.00 0.00 29 1011.0
20260902161020 68 324 3.0 7.0 0.00 0.00 0.00 30 1010.9
20260902160519 68 333 4.0 10.0 0.00 0.00 0.00 33 1010.9
20260902160019 68 14 4.0 10.0 0.00 0.00 0.00 35 1010.9
20260902155518 68 336 1.0 8.0 0.00 0.00 0.00 38 1010.8
20260902155019 67 315 1.0 8.0 0.00 0.00 0.00 38 1010.7
20260902154521 66 148 1.0 6.0 0.00 0.00 0.00 41 1010.6
20260902154016 66 124 0.0 3.0 0.00 0.00 0.00 43 1010.5
20260902153519 66 134 0.0 3.0 0.00 0.00 0.00 43 1010.5
20260902153038 66 131 1.0 4.0 0.00 0.00 0.00 42 1010.4
20260902152513 67 142 1.0 4.0 0.00 0.00 0.00 41 1010.2
20260902152012 68 157 2.0 4.0 0.00 0.00 0.00 39 1010.1
20260902151512 68 159 0.0 4.0 0.00 0.00 0.00 35 1009.8
20260902151014 68 304 1.0 6.0 0.00 0.00 0.00 32 1009.5
20260902150512 67 303 2.0 6.0 0.00 0.00 0.00 35 1009.3
20260902150012 66 322 1.0 6.0 0.00 0.00 0.00 36 1009.6
20260902145510 64 316 1.0 6.0 0.00 0.00 0.00 40 1009.6
20260902145011 63 312 0.0 1.0 0.00 0.00 0.00 52 1009.8
20260902144511 63 230 0.0 1.0 0.00 0.00 0.00 55 1010.0
20260902144011 62 231 0.0 2.0 0.00 0.00 0.00 54 1010.0
20260902143511 63 309 0.0 2.0 0.00 0.00 0.00 50 1010.0
20260902143010 63 142 0.0 1.0 0.00 0.00 0.00 50 1010.0
20260902142510 63 142 0.0 1.0 0.00 0.00 0.00 49 1010.0
20260902142010 63 142 0.0 1.0 0.00 0.00 0.00 48 1009.9
20260902141510 63 142 0.0 0.0 0.00 0.00 0.00 47 1010.0
20260902141009 63 142 0.0 1.0 0.00 0.00 0.00 45 1009.9
20260902140508 64 142 0.0 2.0 0.00 0.00 0.00 45 1009.8
20260902140007 65 143 0.0 2.0 0.00 0.00 0.00 43 1009.9
20260902135509 66 142 0.0 2.0 0.00 0.00 0.00 40 1009.6
20260902135006 67 309 0.0 3.0 0.00 0.00 0.00 35 1009.6
20260902134506 67 309 0.0 4.0 0.00 0.00 0.00 32 1009.3
20260902134105 67 304 1.0 5.0 0.00 0.00 0.00 33 1009.1
20260902133505 66 315 1.0 4.0 0.00 0.00 0.00 38 1008.9
20260902133004 65 214 0.0 3.0 0.00 0.00 0.00 46 1009.2
20260902132503 66 340 0.0 3.0 0.00 0.00 0.00 38 1009.2
20260902132005 66 297 0.0 4.0 0.00 0.00 0.00 35 1009.2
20260902131504 66 314 1.0 4.0 0.00 0.00 0.00 35 1009.1
20260902131001 66 322 0.0 4.0 0.00 0.00 0.00 37 1008.7
20260902130502 67 328 0.0 3.0 0.00 0.00 0.00 37 1008.7
20260902125501 67 312 1.0 5.0 0.00 0.00 0.00 29 1009.1
20260902125103 67 307 2.0 5.0 0.00 0.00 0.00 28 1008.8
20260902124559 66 326 1.0 3.0 0.00 0.00 0.00 31 1008.6
20260902124102 65 295 0.0 3.0 0.00 0.00 0.00 33 1008.5
20260902123557 65 328 0.0 1.0 0.00 0.00 0.00 43 1008.3
20260902123104 65 329 0.0 1.0 0.00 0.00 0.00 44 1008.5
20260902122559 65 328 0.0 3.0 0.00 0.00 0.00 44 1008.7
20260902122054 66 328 0.0 4.0 0.00 0.00 0.00 38 1008.5
20260902121554 65 321 1.0 3.0 0.00 0.00 0.00 37 1008.2
20260902121054 65 330 0.0 3.0 0.00 0.00 0.00 39 1008.0
20260902120554 64 330 0.0 3.0 0.00 0.00 0.00 39 1008.0
20260902120053 65 358 0.0 0.0 0.00 0.00 0.00 43 1008.1
20260902115552 65 359 0.0 0.0 0.00 0.00 0.00 43 1008.1
20260902115053 65 358 0.0 1.0 0.00 0.00 0.00 41 1008.1
20260902114553 65 359 0.0 2.0 0.00 0.00 0.00 39 1008.1
20260902114053 65 339 0.0 2.0 0.00 0.00 0.00 40 1008.0
20260902113552 66 134 0.0 1.0 0.00 0.00 0.00 40 1008.1
20260902113057 66 134 0.0 4.0 0.00 0.00 0.00 40 1008.1
20260902112553 66 326 1.0 4.0 0.00 0.00 0.00 37 1008.0
20260902112050 66 318 0.0 4.0 0.00 0.00 0.00 37 1007.9
20260902111549 66 316 0.0 2.0 0.00 0.00 0.00 39 1007.9
20260902111048 65 319 0.0 2.0 0.00 0.00 0.00 42 1007.9
20260902110548 65 246 0.0 3.0 0.00 0.00 0.00 47 1007.8
20260902110048 65 321 0.0 5.0 0.00 0.00 0.00 46 1007.8
20260902105550 63 308 2.0 5.0 0.00 0.00 0.00 42 1007.7
20260902105046 60 305 1.0 4.0 0.00 0.00 0.00 64 1007.7
20260902104545 59 148 0.0 1.0 0.00 0.00 0.00 77 1007.7
20260902104045 59 148 0.0 1.0 0.00 0.00 0.00 77 1007.6
20260902103543 59 148 0.0 1.0 0.00 0.00 0.00 76 1007.6
20260902103045 59 148 0.0 1.0 0.00 0.00 0.00 77 1007.6
20260902102543 59 148 0.0 1.0 0.00 0.00 0.00 77 1007.6
20260902102044 59 148 0.0 1.0 0.00 0.00 0.00 77 1007.5
20260902101542 59 148 0.0 1.0 0.00 0.00 0.00 77 1007.6
20260902101046 59 147 0.0 0.0 0.00 0.00 0.00 76 1007.5
20260902100541 59 146 0.0 1.0 0.00 0.00 0.00 77 1007.5
20260902100040 60 147 0.0 1.0 0.00 0.00 0.00 77 1007.3
20260902095540 60 147 0.0 0.0 0.00 0.00 0.00 76 1007.2
20260902095038 60 146 0.0 0.0 0.00 0.00 0.00 76 1007.2
20260902094538 60 146 0.0 1.0 0.00 0.00 0.00 75 1007.2
20260902094037 60 147 0.0 1.0 0.00 0.00 0.00 75 1007.2
20260902093535 60 147 0.0 0.0 0.00 0.00 0.00 74 1007.1
20260902093038 60 147 0.0 1.0 0.00 0.00 0.00 74 1007.1
20260902092539 60 146 0.0 1.0 0.00 0.00 0.00 73 1007.1
20260902092034 60 145 0.0 0.0 0.00 0.00 0.00 72 1007.1
20260902091533 60 145 0.0 2.0 0.00 0.00 0.00 72 1007.1
20260902091032 61 146 0.0 2.0 0.00 0.00 0.00 73 1006.9
20260902090536 61 146 0.0 0.0 0.00 0.00 0.00 72 1006.8
20260902090034 61 148 0.0 0.0 0.00 0.00 0.00 70 1006.8
20260902085530 61 148 0.0 0.0 0.00 0.00 0.00 70 1006.8
20260902085030 60 148 0.0 2.0 0.00 0.00 0.00 71 1006.8
20260902084529 61 148 1.0 2.0 0.00 0.00 0.00 71 1006.7
20260902084027 61 137 0.0 0.0 0.00 0.00 0.00 70 1006.5
20260902083528 61 137 0.0 0.0 0.00 0.00 0.00 71 1006.5
20260902083026 61 136 0.0 1.0 0.00 0.00 0.00 70 1006.4
20260902082525 61 136 0.0 1.0 0.00 0.00 0.00 71 1006.4
20260902082024 62 136 0.0 1.0 0.00 0.00 0.00 68 1006.3
20260902081524 62 136 0.0 0.0 0.00 0.00 0.00 69 1006.2
20260902081022 62 136 0.0 0.0 0.00 0.00 0.00 69 1006.3
20260902080522 62 137 0.0 1.0 0.00 0.00 0.00 69 1006.2
20260902080019 63 137 0.0 1.0 0.00 0.00 0.00 69 1006.2
20260902075517 63 136 0.0 0.0 0.00 0.00 0.00 65 1006.1
20260902075017 63 136 0.0 0.0 0.00 0.00 0.00 64 1006.1
20260902074516 63 136 0.0 0.0 0.00 0.00 0.00 64 1006.1
20260902074015 63 136 0.0 0.0 0.00 0.00 0.00 63 1006.1
20260902073514 64 136 0.0 0.0 0.00 0.00 0.00 63 1006.1
20260902073017 64 136 0.0 0.0 0.00 0.00 0.00 63 1006.1
20260902072512 64 136 0.0 1.0 0.00 0.00 0.00 62 1006.0
20260902072012 65 137 0.0 1.0 0.00 0.00 0.00 61 1005.9
20260902071510 66 136 0.0 1.0 0.00 0.00 0.00 57 1005.9
20260902071008 66 132 0.0 1.0 0.00 0.00 0.00 55 1005.9
20260902070508 67 129 0.0 2.0 0.00 0.00 0.00 52 1005.8
20260902070011 67 139 0.0 3.0 0.00 0.00 0.00 53 1005.8
20260902065506 68 150 1.0 3.0 0.00 0.00 0.00 52 1005.7
20260902065010 68 321 1.0 3.0 0.00 0.00 0.00 50 1005.7
20260902064505 68 274 0.0 6.0 0.00 0.00 0.00 50 1005.7
20260902064005 69 173 0.0 7.0 0.00 0.00 0.00 49 1005.6
20260902063509 69 322 3.0 7.0 0.00 0.00 0.00 48 1005.6
20260902063005 69 328 2.0 8.0 0.00 0.00 0.00 48 1005.5
20260902062505 68 307 2.0 8.0 0.00 0.00 0.00 47 1005.6
20260902062002 67 321 3.0 8.0 0.00 0.00 0.00 49 1005.6
20260902061103 66 315 1.0 3.0 0.00 0.00 0.00 52 1005.2
20260902060558 66 139 0.0 1.0 0.00 0.00 0.00 55 1005.2
20260902060101 66 138 0.0 1.0 0.00 0.00 0.00 55 1005.2
20260902055555 66 135 0.0 1.0 0.00 0.00 0.00 55 1005.3
20260902055054 66 135 0.0 1.0 0.00 0.00 0.00 53 1005.4
20260902054610 66 135 0.0 1.0 0.00 0.00 0.00 54 1005.5
20260902054053 66 135 0.0 1.0 0.00 0.00 0.00 55 1005.5
20260902053553 65 136 0.0 1.0 0.00 0.00 0.00 55 1005.5
20260902053103 65 139 0.0 1.0 0.00 0.00 0.00 57 1005.5
20260902052555 65 139 0.0 3.0 0.00 0.00 0.00 58 1005.6
20260902052053 66 136 0.0 2.0 0.00 0.00 0.00 57 1005.6
20260902051552 66 139 0.0 1.0 0.00 0.00 0.00 55 1005.6
20260902051052 66 139 0.0 1.0 0.00 0.00 0.00 56 1005.6
20260902050554 66 139 0.0 1.0 0.00 0.00 0.00 56 1005.8
20260902050056 66 139 0.0 1.0 0.00 0.00 0.00 55 1005.8
20260902045552 66 139 0.0 1.0 0.00 0.00 0.00 55 1005.7
20260902045051 66 141 0.0 1.0 0.00 0.00 0.00 54 1005.7
20260902044553 67 120 0.0 1.0 0.00 0.00 0.00 52 1005.7
20260902044051 67 120 0.0 1.0 0.00 0.00 0.00 53 1005.8
20260902043550 68 120 0.0 0.0 0.00 0.00 0.00 52 1005.8
20260902043050 68 120 0.0 1.0 0.00 0.00 0.00 52 1005.8
20260902042550 68 120 0.0 1.0 0.00 0.00 0.00 51 1005.9
20260902042050 69 120 0.0 1.0 0.00 0.00 0.00 51 1005.8
20260902041549 69 120 0.0 1.0 0.00 0.00 0.00 50 1005.9
20260902041052 70 120 0.0 1.0 0.00 0.00 0.00 49 1005.9
20260902040549 70 120 0.0 1.0 0.00 0.00 0.00 46 1005.9
20260902040052 70 120 0.0 1.0 0.00 0.00 0.00 47 1005.9
20260902035548 70 120 0.0 1.0 0.00 0.00 0.00 47 1005.9
20260902035048 70 120 0.0 1.0 0.00 0.00 0.00 47 1005.9
20260902034551 70 120 0.0 3.0 0.00 0.00 0.00 46 1006.0
20260902034048 70 107 0.0 3.0 0.00 0.00 0.00 47 1005.9
20260902033548 70 146 0.0 1.0 0.00 0.00 0.00 48 1005.9
20260902033048 70 146 0.0 1.0 0.00 0.00 0.00 49 1005.9
20260902032548 71 146 0.0 1.0 0.00 0.00 0.00 46 1005.8
20260902032048 72 146 0.0 1.0 0.00 0.00 0.00 46 1005.7
20260902031548 72 146 0.0 0.0 0.00 0.00 0.00 46 1005.7
20260902031047 72 146 0.0 0.0 0.00 0.00 0.00 46 1005.7
20260902030546 73 146 0.0 1.0 0.00 0.00 0.00 45 1005.8
20260902030046 73 146 0.0 1.0 0.00 0.00 0.00 44 1005.7
20260902025546 74 146 0.0 1.0 0.00 0.00 0.00 43 1005.7
20260902025047 74 146 0.0 1.0 0.00 0.00 0.00 41 1005.6
20260902024547 75 146 0.0 1.0 0.00 0.00 0.00 40 1005.5
20260902024046 75 146 0.0 1.0 0.00 0.00 0.00 39 1005.4
20260902023545 76 146 0.0 2.0 0.00 0.00 0.00 36 1005.5
20260902023100 77 144 0.0 2.0 0.00 0.00 0.00 36 1005.5
20260902022545 78 204 0.0 1.0 0.00 0.00 0.00 35 1005.5
20260902022044 79 225 0.0 1.0 0.00 0.00 0.00 32 1005.5
20260902021544 80 224 0.0 2.0 0.00 0.00 0.00 32 1005.5
20260902021046 81 297 0.0 3.0 0.00 0.00 0.00 30 1005.6
20260902020544 81 309 1.0 4.0 0.00 0.00 0.00 27 1005.5
20260902020043 81 309 1.0 8.0 0.00 0.00 0.00 28 1005.5